OSTRACH Weather Reports


Display with metric or nautical units.
time (UTC)temp
F
wind
direction
speed
MPH
gust
MPH
rain 1hr
in
rain 24hr
in
rain mn
in
humidity
%
barometer
mb
20260504043211 44 265 0.0 0.0 0.00 0.00 0.00 86 1012.0
20260504040211 44 265 0.0 0.0 0.00 0.00 0.00 86 1012.0
20260504033211 45 265 0.0 0.0 0.00 0.00 0.00 84 1012.3
20260504030212 46 265 0.0 0.0 0.00 0.00 0.00 82 1012.3
20260504023211 48 265 0.0 0.0 0.00 0.00 0.00 81 1012.3
20260504020212 50 265 0.0 0.0 0.00 0.00 0.00 79 1012.3
20260504013211 51 265 0.0 0.0 0.00 0.00 0.00 78 1012.4
20260504010211 49 265 0.0 0.0 0.00 0.00 0.00 80 1012.1
20260504003210 50 265 0.0 0.0 0.00 0.00 0.00 77 1012.5
20260504000208 51 265 0.0 0.0 0.00 0.00 0.00 77 1012.7
20260503233209 52 265 0.0 0.0 0.00 0.00 0.00 74 1012.8
20260503230209 54 265 0.0 0.0 0.00 0.00 0.00 71 1013.0
20260503223210 56 265 0.0 0.0 0.00 0.00 0.00 65 1013.1
20260503220212 54 265 0.0 0.0 0.00 0.00 0.00 67 1013.0
20260503213210 54 265 0.0 0.0 0.00 0.00 0.00 68 1012.6
20260503210211 56 265 0.0 0.0 0.00 0.00 0.00 62 1012.4
20260503203209 58 265 0.0 0.0 0.00 0.00 0.00 57 1012.3
20260503200211 60 265 0.0 0.0 0.00 0.00 0.00 49 1011.9
20260503193210 62 265 2.0 0.0 0.00 0.00 0.00 45 1011.6
20260503190210 63 265 4.0 0.0 0.00 0.00 0.00 44 1011.5
20260503183209 65 265 14.0 0.0 0.00 0.00 0.00 40 1011.1
20260503180210 69 236 0.0 0.0 0.00 0.00 0.00 48 1010.2
20260503173209 71 234 6.0 0.0 0.00 0.00 0.00 44 1010.2
20260503170211 72 232 3.0 0.0 0.00 0.00 0.00 41 1010.0
20260503160211 76 231 1.0 0.0 0.00 0.00 0.00 32 1009.6
20260503150209 74 233 7.0 0.0 0.00 0.00 0.00 30 1010.0
20260503140210 77 225 8.0 0.0 0.00 0.00 0.00 28 1010.3
20260503130210 76 220 8.0 0.0 0.00 0.00 0.00 24 1011.1
20260503120210 74 217 3.0 0.0 0.00 0.00 0.00 37 1011.5
20260503110210 74 195 7.0 0.0 0.00 0.00 0.00 42 1012.0
20260503100212 73 182 7.0 0.0 0.00 0.00 0.00 42 1012.5
20260503090210 70 180 0.0 0.0 0.00 0.00 0.00 47 1013.0
20260503080212 65 178 6.0 0.0 0.00 0.00 0.00 54 1013.3
20260503070211 58 175 0.0 0.0 0.00 0.00 0.00 70 1013.3
20260503060211 49 175 0.0 0.0 0.00 0.00 0.00 85 1013.4
20260503053211 44 175 0.0 0.0 0.00 0.00 0.00 91 1013.4
20260503050212 42 175 0.0 0.0 0.00 0.00 0.00 89 1013.3